[[{"header":{"parameterUnit":"m.s-1","parameterCategory":1,"la1":30.2992,"la2":30.254,"lo1":-89.0895,"lo2":-89.0443,"dy":0.0025,"dx":0.0025,"nx":19,"ny":19,"refTime":"2026-04-21T03:00:00:Z","depth":0,"parameterNumber":2,"parameterNumberName":"U-component_of_WINDS"},"data":[0,0,0,-4.0217,-4.0217,-4.023,-4.023,-4.026,-4.026,0,0,0,0,0,0,0,0,0,0,0,-4.0221,-4.0221,-4.0217,-4.0218,-4.023,-4.023,-4.026,-4.026,0,0,0,0,0,0,0,0,0,0,0,-4.0221,-4.0221,-4.0222,-4.0218,-4.023,-4.023,-4.026,-4.0246,0,0,0,0,0,0,0,0,0,0,-4.0231,-4.0242,-4.0221,-4.0222,-4.0218,-4.023,-4.023,-4.0245,-4.0247,-4.026,0,-4.0274,0,-4.0268,-4.0263,-4.0264,0,0,0,-4.0212,-4.0241,-4.0237,-4.0222,-4.0218,-4.023,-4.0223,-4.0246,-4.0248,-4.0263,-4.0274,-4.0275,-4.0268,-4.0264,-4.0264,-4.0362,-4.0363,0,0,-4.0211,-4.0227,-4.0236,-4.0239,-4.0237,-4.0222,-4.0223,-4.0247,-4.026,-4.0274,-4.0275,-4.0269,-4.0264,-4.0264,-4.0361,-4.0362,0,0,0,-4.0213,-4.0227,-4.0223,-4.0238,-4.0239,-4.0223,-4.0224,-4.0259,-4.0256,-4.0276,-4.0269,-4.0264,-4.0265,-4.036,-4.0362,-4.0413,0,0,0,-4.0212,-4.0228,-4.0223,-4.0233,-4.0239,-4.0249,-4.0236,-4.0255,-4.0257,-4.0269,-4.0264,-4.0265,-4.036,-4.0361,-4.041,-4.0434,0,0,0,-4.0218,-4.0229,-4.0233,-4.0234,-4.024,-4.0248,-4.0247,-4.0255,-4.0253,-4.0264,-4.0265,-4.0359,-4.0361,-4.0407,-4.043,-4.0465,0,0,0,-4.0228,-4.0278,-4.0234,-4.0288,-4.024,-4.0281,-4.0246,-4.0276,-4.0291,-4.0264,-4.036,-4.0362,-4.0406,-4.0427,-4.0462,-4.0498,-4.0514,0,0,-4.03,-4.0288,-4.0318,-4.0279,-4.0332,-4.0277,-4.0338,-4.0336,-4.0322,-4.035,-4.0352,-4.0411,-4.0429,-4.0465,-4.0601,-4.0614,0,0,0,-4.0347,-4.0369,-4.0379,-4.0395,-4.0395,-4.0398,-4.0385,-4.0385,-4.0408,-4.034,-4.0433,-4.0444,-4.0464,-4.048,-4.0491,-4.0507,-4.037,-4.037,-4.0369,-4.0471,-4.0452,-4.0502,-4.0485,-4.05,-4.0488,-4.0499,-4.0497,-4.0472,-4.0495,-4.0502,-4.0587,-4.0607,-4.0615,-4.0633,-4.052,-4.052,-4.052,-4.052,-4.0576,-4.0604,-4.0572,-4.0609,-4.0589,-4.0619,-4.0611,-4.0593,-4.0619,-4.058,-4.0596,-4.0554,-4.063,-4.0644,-4.0524,-4.0524,-4.0523,-4.0523,-4.0522,-4.0655,-4.0665,-4.0665,-4.0686,-4.0705,-4.0687,-4.0714,-4.0695,-4.0677,-4.0693,-4.07,-4.0699,-4.0695,-4.0698,-4.0698,-4.0699,-4.0699,-4.0699,-4.0699,-4.0736,-4.0734,-4.0759,-4.0766,-4.0774,-4.0783,-4.0774,-4.0781,-4.0785,-4.0769,-4.0769,-4.0743,-4.0641,-4.0616,-4.0704,-4.0703,-4.0702,-4.0702,-4.0702,-4.0848,-4.082,-4.0859,-4.0867,-4.0875,-4.0896,-4.0872,-4.089,-4.0894,-4.0909,-4.088,-4.0808,-4.0793,-4.0784,-4.0763,-4.0883,-4.0883,-4.0883,-4.0883,-4.0914,-4.0905,-4.0941,-4.0957,-4.097,-4.0952,-4.0998,-4.0993,-4.0982,-4.0984,-4.0964,-4.0935,-4.0927,-4.0916,-4.0905,-4.0884,-4.1033,-4.1033,-4.1033,-4.0981,-4.0973,-4.1015,-4.1005,-4.101,-4.1015,-4.1058,-4.1078,-4.1061,-4.1039,-4.0985,-4.0978,-4.0931,-4.0917,-4.0892,-4.0874,-4.0837,0,0]},{"header":{"parameterUnit":"m.s-1","parameterCategory":1,"la1":30.2992,"la2":30.254,"lo1":-89.0895,"lo2":-89.0443,"dy":0.0025,"dx":0.0025,"nx":19,"ny":19,"refTime":"2026-04-21T03:00:00:Z","depth":0,"parameterNumber":3,"parameterNumberName":"V-component_of_WINDS"},"data":[0,0,0,5.0203,5.0203,5.0202,5.0202,5.0202,5.0202,0,0,0,0,0,0,0,0,0,0,0,5.0205,5.0205,5.0203,5.0203,5.0202,5.0202,5.0202,5.0202,0,0,0,0,0,0,0,0,0,0,0,5.0205,5.0205,5.0205,5.0203,5.0202,5.0202,5.0202,5.0202,0,0,0,0,0,0,0,0,0,0,5.0202,5.0206,5.0205,5.0205,5.0203,5.0202,5.0202,5.0202,5.0202,5.0203,0,5.0206,0,5.0204,5.0202,5.0202,0,0,0,5.0201,5.0206,5.0205,5.0205,5.0203,5.0202,5.0201,5.0202,5.0202,5.0204,5.0206,5.0206,5.0204,5.0202,5.0202,5.0221,5.0222,0,0,5.0201,5.0205,5.0205,5.0205,5.0206,5.0202,5.0201,5.0202,5.0204,5.0206,5.0206,5.0204,5.0202,5.0202,5.0221,5.0221,0,0,0,5.0202,5.0205,5.0203,5.0205,5.0205,5.0202,5.0201,5.0204,5.0204,5.0206,5.0204,5.0202,5.0202,5.0221,5.0221,5.0235,0,0,0,5.0202,5.0206,5.0204,5.0206,5.0205,5.0205,5.0204,5.0204,5.0203,5.0204,5.0202,5.0202,5.0221,5.0221,5.0234,5.024,0,0,0,5.0204,5.0206,5.0207,5.0206,5.0206,5.0205,5.0204,5.0203,5.0202,5.0202,5.0202,5.0221,5.0221,5.0233,5.0239,5.0246,0,0,0,5.0207,5.0217,5.0207,5.0219,5.0206,5.0214,5.0204,5.0208,5.021,5.0202,5.0221,5.0221,5.0233,5.0238,5.0246,5.0253,5.0257,0,0,5.0222,5.0219,5.0226,5.0217,5.0227,5.0213,5.0226,5.0222,5.0217,5.022,5.022,5.0234,5.0238,5.0246,5.0279,5.0282,0,0,0,5.0232,5.0237,5.0239,5.0241,5.024,5.024,5.0234,5.0233,5.0236,5.022,5.0239,5.0242,5.0246,5.0249,5.0252,5.0256,5.0223,5.0223,5.0223,5.0259,5.0255,5.0265,5.0261,5.0264,5.0259,5.0261,5.0258,5.0251,5.0256,5.0256,5.0277,5.0281,5.0283,5.0287,5.0261,5.0261,5.0261,5.0261,5.0281,5.0287,5.028,5.0288,5.0283,5.0289,5.0286,5.0281,5.0285,5.0276,5.0279,5.0268,5.0287,5.029,5.0262,5.0262,5.0262,5.0262,5.0261,5.0298,5.03,5.03,5.0305,5.0309,5.0304,5.031,5.0305,5.03,5.0303,5.0304,5.0303,5.0302,5.0304,5.0304,5.0304,5.0304,5.0304,5.0304,5.0314,5.0314,5.032,5.0322,5.0324,5.0326,5.0323,5.0325,5.0325,5.0321,5.0321,5.0313,5.029,5.0284,5.0305,5.0305,5.0305,5.0305,5.0305,5.0337,5.0332,5.0341,5.0343,5.0346,5.0351,5.0345,5.0349,5.035,5.0353,5.0346,5.0329,5.0325,5.0323,5.0318,5.0347,5.0347,5.0347,5.0347,5.0351,5.0349,5.0358,5.0362,5.0366,5.0363,5.0373,5.0372,5.0369,5.0369,5.0365,5.0358,5.0356,5.0353,5.035,5.0345,5.038,5.038,5.038,5.0365,5.0364,5.0373,5.0373,5.0375,5.0376,5.0386,5.0391,5.0387,5.0382,5.0369,5.0368,5.0357,5.0354,5.0346,5.0342,5.0333,0,0]}]]